Location: Pasadena, ca
(34.1243°N, 118.1037°W)
Time: 21:02:17
(UTC-07:00)

Envisat - Pass Details

Date: 09 October 2017
Orbit: 764 x 766 km, 98.2° (Epoch: 16 October)

Event Time Altitude Azimuth Distance (km) Brightness Sun altitude
Exits shadow 20:24:53 32° 19° (NNE) 1,295 4.0 -25.5°
Drops below altitude 10° 20:27:48 10° 360° (N) 2,306 5.6 -26.1°
Sets 20:30:10 0° 355° (N) 3,236 6.4 -26.6°
